Other Public Products
Issued by NWS Charleston, SC

Current Version | Previous Version | Graphics & Text | Print | Product List | Glossary On
Versions: 1 2 3 4 5 6 7 8 9 10 11 12 13 14 15 16 17 18 19 20 21 22 23 24 25 26 27 28 29 30 31 32 33 34 35 36 37 38 39 40 41 42 43 44 45 46 47 48 49 50
940
FPUS82 KCHS 240327
OPUCHS

TEST...KCHS/KSAV Gateway Observations...TEST
National Weather Service Charleston SC
1100 PM EDT WED MAY 23 2018

NOTE: "fair" indicates few or no clouds below 12,000 feet with no
significant weather and/or obstructions to visibility.

SCZ050-WAZ558-NCZ071-TXZ119-213-PAZ071-DCZ001-FLZ074-172-MI076-
NYZ176-178-MAZ016-IL014-TNZ027-NJZ106-GAZ044-MD014-240400-

...Gateway Observations for Charleston International...

CITY           SKY/WX    TMP DP  RH WIND       PRES   REMARKS
Chas Airport   FAIR      73  69  87 S5        30.09S
Seattle        PTCLDY    72  51  47 W9        29.80R
Charlotte      MOCLDY    76  72  87 CALM      30.09R
Dallas DFW     NOT AVBL
Dallas Love    NOT AVBL
Philladelphia  FAIR      69  55  60 W6        30.04S
Wash National  FAIR      72  56  57 NW8       30.09R
Baltimore      MOCLDY    63  58  83 W5        30.08R
Miami          FAIR      78  73  84 E10       30.08R
Detroit        FAIR      65  53  65 S5        30.19R
Newark         FAIR      73  51  46 W10       30.00R
Laguardia      FAIR      76  49  38 W13       29.99R
J F K          FAIR      75  50  41 W10       30.00R
Boston Logan   FAIR      64  54  69 NE14      29.96S
Ft. Lauderdale FAIR      79  75  87 E9        30.07S
Chicago O`Hare FAIR      64  50  60 E5        30.18R
Chicago Midway FAIR      63  53  70 E7        30.19R
Houston Bush   FAIR      74  71  91 E5        30.02R
Houston Hobby  FAIR      76  74  93 E3        30.01R
Nashville      MOCLDY    77  64  64 CALM      30.11R
Atlanta        MOCLDY    74  69  85 SE3       30.09R

$$

GAZ044-118-TXZ119-213-NCZ071-DCZ001-MDZ014-506-PAZ021-071-NJZ106-
NYZ176-178-MAZ106-OHZ011-021-055-MIZ076-KYZ091-ILZ014-INZ047-
MNZ060-ONZ431-240400-

...Gateway Observations for Savannah International...

CITY           SKY/WX    TMP DP  RH WIND       PRES   REMARKS
Savannah Arpt  MOCLDY    75  70  84 S7        30.09R
Atlanta        MOCLDY    74  69  85 SE3       30.09R
Charlotte      MOCLDY    76  72  87 CALM      30.09R
Dallas DFW     NOT AVBL
Houston Bush   FAIR      74  71  91 E5        30.02R
Wash National  FAIR      72  56  57 NW8       30.09R
Wash Dulles    FAIR      67  58  72 NW5       30.11R
Baltimore      MOCLDY    63  58  83 W5        30.08R
Philadelphia   FAIR      69  55  60 W6        30.04S
Newark         FAIR      73  51  46 W10       30.00R
Laguardia      FAIR      76  49  38 W13       29.99R
J F K          FAIR      75  50  41 W10       30.00R
Boston         FAIR      64  54  69 NE14      29.96S
Pittsburg      FAIR      66  51  58 N5        30.17R
Akron          FAIR      63  47  55 N5        30.19S
Cleveland      FAIR      61  53  75 CALM      30.20R
Cincinnati     MOCLDY    71  54  54 NE7       30.16R
Columbus       FAIR      63  53  71 MISG      30.18R
Detroit        FAIR      65  53  65 S5        30.19R
Chicago O`Hare FAIR      64  50  60 E5        30.18R
Minneapolis    FAIR      77  65  66 SE10      30.06R
Indianapolis   FAIR      72  53  51 E7        30.17R
Toronto Canada CLEAR     66  43  42 NW8       30.13R

$$




USA.gov is the U.S. government's official web portal to all federal, state and local government web resources and services.